Location: Haaberg
(48.6824°N, 8.1828°E)
Time: 23:17:55
(UTC+00:00)

Daily predictions for brighter satellites

Satellite Brightness Start Highest point End
(mag) Time Altitude Azimuth Time Altitude Azimuth Time Altitude Azimuth
Cosmos 1727 Rocket 4.4 20:03:09 10° SSE 20:09:07 46° E 20:15:04 10° NNE
SPOT 5 3.9 20:05:44 10° SE 20:10:21 34° ENE 20:14:48 10° N
Cosmos 1842 3.5 20:06:45 10° SSW 20:10:41 74° W 20:14:39 10° N
Okean 1 Rocket 3.1 20:07:10 10° N 20:11:32 84° ENE 20:15:55 10° S
NOSS 3-2 (C) 3.4 20:07:26 10° SSW 20:12:55 58° ESE 20:19:15 10° NE
Cosmos 292 Rocket 4.1 20:08:24 10° S 20:12:59 45° ESE 20:17:35 10° NE
NOSS 3-2 (A) 3.5 20:07:22 10° SW 20:13:00 90° NW 20:19:37 10° NE
Cosmos 1605 Rocket 4.1 20:06:39 10° N 20:13:07 89° E 20:19:30 10° S
Cosmos 1455 Rocket 4.1 20:11:36 10° N 20:15:39 33° ENE 20:19:40 10° SE
Cosmos 2285 Rocket 4.1 20:10:35 10° S 20:16:56 65° ESE 20:23:18 10° NNE
Geosat 4.2 20:13:12 10° SE 20:18:11 67° ENE 20:23:11 10° NNW
Cosmos 1626 4.1 20:16:27 10° ESE 20:18:24 14° E 20:20:21 10° NE
Cosmos 1371 Rocket 4.4 20:13:29 10° SSW 20:18:38 71° WNW 20:23:51 10° NNE
ERS-2 4.4 20:15:48 10° N 20:19:00 29° WNW 20:22:11 10° SW
SL-16 R/B 2.4 20:13:58 10° S 20:19:26 52° ESE 20:24:56 10° NE
Spot 2 Rocket 3.7 20:15:48 10° SSE 20:20:45 59° ENE 20:25:45 10° N
Cosmos 1420 Rocket 4.0 20:16:28 10° SSW 20:21:38 76° ESE 20:26:51 10° NNE
Meteor 1-21 4.2 20:16:55 10° S 20:22:35 78° E 20:28:14 10° NNE
Cosmos 2360 Rocket 3.2 20:18:10 10° SSE 20:22:46 26° ESE 20:27:23 10° NE
Lacrosse 5 2.0 20:17:59 10° WNW 20:23:02 69° SW 20:28:04 10° SE
Cosmos 2322 Rocket 2.6 20:17:43 10° S 20:23:05 44° ESE 20:28:28 10° NE
ATLAS 3B R/B 4.1 20:19:44 10° SE 20:23:10 15° ESE 20:26:39 10° ENE
Cosmos 1470 3.1 20:21:06 10° NNW 20:25:04 67° W 20:29:00 10° S
Cosmos 1378 Rocket 3.9 20:20:55 10° SSW 20:25:14 70° W 20:29:38 10° N
Terra 2.8 20:23:16 10° SE 20:27:30 33° ENE 20:31:46 10° N
Genesis I 3.2 20:25:01 10° SSW 20:28:46 56° SE 20:32:39 10° NE
SPOT 3 Rocket 4.0 20:24:11 10° S 20:29:16 60° WSW 20:34:26 10° NNW
ERS-1 Rocket 3.4 20:25:03 10° SE 20:29:53 49° ENE 20:34:45 10° N
Cosmos 1315 Rocket 3.2 20:26:01 10° NNW 20:30:09 70° W 20:34:15 10° S
Meteor 2-20 4.5 20:26:14 10° S 20:32:21 82° E 20:38:28 10° NNE
Cosmos 220 Rocket 4.1 20:28:03 10° SSW 20:32:21 81° WNW 20:36:39 10° NNE
Cosmos 1741 Rocket 4.2 20:31:59 10° NNW 20:37:14 65° ENE 20:42:13 11° SE
Cosmos 1980 Rocket 3.9 20:37:07 10° WSW 20:42:21 38° NW 20:47:37 10° NNE
USA 215 4.1 20:38:08 10° ENE 20:43:33 27° SE 20:48:55 10° S
Cosmos 2278 Rocket 4.4 20:40:26 10° N 20:44:04 17° NE 20:47:42 10° ENE
Cosmos 1674 3.0 20:41:21 10° SSE 20:44:54 46° E 20:48:29 10° NNE
Okean 2 4.4 20:41:31 10° SSW 20:45:29 48° WNW 20:49:28 10° N
Cosmos 1459 Rocket 4.1 20:39:36 10° N 20:45:37 60° ENE 20:51:15 12° SSE
Resurs 01 Rocket 3.2 20:42:41 10° SSW 20:46:37 32° W 20:50:35 10° NNW
Cosmos 1758 3.8 20:43:51 10° NNW 20:47:47 58° W 20:51:40 10° S
USA 238 DEB 3.9 20:41:38 10° SW 20:48:13 76° NW 20:55:12 10° NE
USA 238 3.9 20:41:45 10° SW 20:48:19 77° NW 20:55:18 10° NE
Cosmos 1300 4.5 20:46:15 10° NNE 20:49:08 20° ENE 20:51:46 11° ESE
USA 81 4.5 20:52:10 10° NNW 20:57:23 62° W 21:02:34 10° S
CARTOSAT-1 3.8 20:54:22 10° S 20:58:37 69° WSW 21:02:57 10° NNW
Cosmos 1844 Rocket 2.8 20:53:57 10° NNW 20:59:39 72° ENE 21:04:26 15° SE
Cosmos 1025 Rocket 3.5 20:57:16 13° SSE 21:00:54 45° E 21:05:06 10° NNE
Lacrosse 5 rocket 2.5 20:59:58 16° SSE 21:01:00 18° SE 21:03:32 10° E
CENTAUR R/B 3.1 20:57:35 10° SW 21:03:37 67° NW 21:10:56 10° NE
Cosmos 1726 4.2 21:01:52 10° NW 21:04:47 23° W 21:07:41 10° SW
Cosmos 1908 3.2 21:00:53 10° N 21:04:48 84° ENE 21:07:53 16° SSE
Cosmos 1975 Rocket 3.1 21:02:26 10° S 21:06:48 86° WNW 21:11:13 10° N
SL-8 R/B 3.7 21:03:30 10° W 21:08:18 74° SSW 21:13:03 10° ESE
Meteor 2-11 Rocket 4.5 21:04:44 10° N 21:10:54 82° E 21:16:10 14° SSE
Cosmos 2263 Rocket 4.0 21:07:10 10° NW 21:11:39 24° WSW 21:16:06 10° SSW
Cosmos 1707 4.4 21:10:03 10° SW 21:13:35 34° WNW 21:17:10 10° N
Cosmos 1340 3.5 21:11:35 19° SSE 21:13:44 34° E 21:17:11 10° NNE
Cosmos 2123 Rocket 4.3 21:08:51 14° SSE 21:14:12 53° E 21:20:21 10° NNE
Cosmos 1953 2.6 21:12:37 10° NNW 21:16:41 65° W 21:20:00 14° S
Cosmos 1110 Rocket 4.0 21:13:05 10° S 21:18:10 63° ESE 21:23:20 10° NNE
USA 267 3.8 21:12:24 10° E 21:18:47 59° NNE 21:25:12 10° NW
CZ-4B DEB 4.2 21:20:12 22° SSE 21:22:07 89° ESE 21:25:19 10° NNW
Cosmos 2100 Rocket 4.3 21:16:15 10° NNW 21:22:36 71° W 21:28:26 12° S
Cosmos 1461 2.9 21:18:59 10° NW 21:23:15 75° SW 21:25:52 21° SSE
Cosmos 2233 Rocket 4.5 21:18:24 10° N 21:24:20 47° ENE 21:28:46 18° SE
GEOS 3 Rocket 4.0 21:19:40 13° ESE 21:24:22 64° NE 21:29:40 10° NW
ARIANE 5 R/B 3.7 21:20:28 10° SSW 21:24:36 40° W 21:28:51 10° NNW
Cosmos 2333 Rocket 2.8 21:21:56 16° SSE 21:25:59 38° ESE 21:31:15 10° NE
NOSS 8 (A) 4.4 21:23:16 10° SW 21:26:31 70° NW 21:29:27 10° NE
SL-14 R/B 3.5 21:26:32 20° SSE 21:29:09 56° E 21:33:07 10° NNE
Cosmos 968 Rocket 4.3 21:25:01 10° NNW 21:29:51 41° ENE 21:33:36 16° SE
Cosmos 405 2.9 21:30:56 10° N 21:34:24 68° ENE 21:36:09 26° SSE
Cosmos 1452 Rocket 4.4 21:33:44 10° SW 21:38:51 49° WNW 21:44:00 10° NNE
Aureole 1 Rocket 4.2 21:33:47 10° NNW 21:39:20 65° WSW 21:44:46 18° S
Cosmos 1844 3.8 21:34:34 10° NNW 21:40:08 72° WSW 21:43:57 21° SSE
ATLAS CENTAUR R/B 1.7 21:37:14 10° NW 21:41:31 69° NE 21:44:31 21° SE
SL-24 R/B 4.3 21:37:46 10° N 21:42:42 75° E 21:45:59 20° S
Meteor 1-24 Rocket 4.0 21:40:46 21° SSE 21:44:03 48° E 21:49:16 10° NNE
Cosmos 2219 Rocket 2.6 21:41:31 19° S 21:45:17 46° ESE 21:50:42 10° NE
Cosmos 2016 Rocket 4.1 21:40:26 10° NNW 21:46:31 74° W 21:51:12 18° S
SPOT 5 4.1 21:43:58 12° SSW 21:48:22 37° W 21:53:01 10° NNW
Cosmos 1544 Rocket 4.3 21:44:04 10° NNW 21:48:24 50° W 21:51:34 17° SSW
Cosmos 1900 4.3 21:45:07 10° NW 21:50:02 73° WSW 21:52:55 24° SSE
Cosmos 1626 2.9 21:50:10 14° SSW 21:53:11 47° WNW 21:56:47 10° N
Cosmos 1606 Rocket 4.4 21:49:08 10° N 21:53:22 39° ENE 21:55:43 22° SE
ALOS 2 4.1 21:50:57 15° ESE 21:53:39 27° ENE 21:57:20 10° N
Cosmos 1725 Rocket 4.1 21:51:00 10° NNW 21:57:10 71° W 22:01:41 19° S
Meteor 2-10 Rocket 3.7 21:53:54 10° N 21:59:00 61° ENE 22:01:54 25° SSE
Cosmos 2237 Rocket 3.7 21:57:17 16° ESE 21:59:02 19° E 22:02:52 10° ENE
H-2A R/B 3.9 21:55:19 10° N 21:59:21 59° WNW 22:02:41 14° SSW
BREEZE-M DEB (TANK) 3.2 21:59:45 10° WSW 22:02:44 85° SSE 22:11:12 10° ENE
SL-16 R/B 4.0 21:58:44 10° WSW 22:03:48 33° NW 22:08:54 10° NNE
BREEZE-M DEB (TANK) 3.9 21:55:02 10° SW 22:04:57 35° SSE 22:08:26 10° E
Lacrosse 5 3.9 22:02:25 10° W 22:05:13 15° WSW 22:07:23 12° SSW
Terra 3.0 22:01:47 15° SSW 22:05:13 34° W 22:09:34 10° NNW
Cosmos 2360 Rocket 2.8 22:00:51 10° SW 22:06:24 57° WNW 22:11:59 10° NNE
FALCON 9 DEB 2.9 22:03:37 10° WSW 22:07:03 82° SSE 22:10:28 10° ENE
Cosmos 2322 Rocket 3.7 22:01:57 10° WSW 22:07:14 37° NW 22:12:33 10° NNE
ATLAS 3B R/B 2.6 22:06:08 10° SSW 22:12:38 71° SE 22:19:22 10° NE
COSMOS 2428 2.7 22:13:36 21° S 22:17:25 65° ESE 22:23:07 10° NNE
Cosmos 1455 3.1 22:14:26 10° N 22:18:03 38° ENE 22:19:32 27° ESE
Cosmos 1867 3.7 22:14:11 10° NW 22:19:42 72° NE 22:23:21 21° SE
BREEZE-M DEB (TANK) 2.3 22:18:37 10° WSW 22:21:32 77° SSE 22:28:59 10° ENE
Cosmos 2322 3.7 22:16:36 14° SSW 22:21:35 85° WNW 22:27:17 10° NNE
Cosmos 1536 Rocket 4.3 22:18:35 17° SSW 22:21:50 50° WNW 22:26:11 10° N
ATLAS CENTAUR R/B 4.1 22:21:00 21° SE 22:23:16 26° ESE 22:31:46 10° NE
Cosmos 1302 Rocket 4.1 22:20:04 17° SSW 22:24:12 80° WNW 22:29:29 10° NNE
Cosmos 1300 3.8 22:21:23 10° NNW 22:24:53 35° W 22:26:42 22° SW
USA 215 3.2 22:20:37 10° ENE 22:27:12 81° SE 22:33:45 10° SW
DNEPR-1 R/B 4.0 22:24:35 10° NW 22:28:39 47° WSW 22:30:15 31° S
Cosmos 1346 Rocket 2.7 22:27:17 35° S 22:28:54 78° E 22:32:56 10° NNE
Cosmos 2278 Rocket 2.4 22:23:39 10° NNW 22:29:19 66° ENE 22:32:55 23° SE
Meteor 2-5 Rocket 4.2 22:30:32 16° SSW 22:34:53 56° WNW 22:40:24 10° N
Cosmos 389 Rocket 2.4 22:32:27 10° NNW 22:35:51 72° W 22:36:46 45° S
Lacrosse 5 rocket 1.1 22:36:05 10° WSW 22:39:42 72° NNW 22:43:17 10° NE
Cosmos 1844 Rocket 4.4 22:38:51 10° NW 22:42:58 21° W 22:46:06 14° SW
Uosat 12 SS-18 rocket 4.1 22:41:41 27° SSW 22:44:04 74° SE 22:49:08 10° NE
Okean 1-7 Rocket 4.3 22:44:49 29° SE 22:46:25 40° E 22:50:36 10° NNE
FALCON 9 DEB 2.9 22:47:10 56° ESE 22:47:10 56° ESE 22:49:58 10° ENE
Spot 4 4.1 22:44:45 30° S 22:47:00 60° WSW 22:51:45 10° NNW
Cosmos 2228 3.5 22:42:50 10° NNW 22:47:07 51° W 22:49:02 29° SSW
FALCON 9 DEB 3.6 22:48:39 38° ESE 22:48:39 38° ESE 22:50:58 10° ENE
Meteor 2-1 Rocket 4.3 22:47:09 10° N 22:52:40 69° ENE 22:55:36 28° SSE
Cosmos 1486 Rocket 4.3 22:48:58 10° NNW 22:54:05 57° WSW 22:56:26 31° S
FALCON 9 DEB 2.7 22:55:40 65° SE 22:55:40 65° SE 22:58:43 10° ENE
Cosmos 1703 3.6 23:00:14 38° SE 23:01:19 51° E 23:05:11 10° NNE
USA 267 3.3 22:57:24 22° SE 23:01:48 64° SW 23:08:19 10° WNW
COBE Rocket 4.1 22:59:36 31° S 23:01:59 63° W 23:06:56 10° NNW
Cosmos 2058 Rocket 3.0 23:00:22 10° N 23:04:51 84° W 23:06:34 37° S
Cosmos 1354 Rocket 4.0 23:00:53 10° NNW 23:06:16 87° WSW 23:08:54 31° SSE
Cosmos 1980 3.7 23:05:28 30° S 23:08:18 66° ESE 23:13:58 10° NNE
Cosmos 1441 Rocket 3.5 23:07:22 41° SSE 23:08:23 55° E 23:12:10 10° NNE
Cosmos 2333 Rocket 3.3 23:04:47 10° WSW 23:10:13 42° NW 23:15:41 10° NNE
GP-B 4.0 23:09:26 10° NNE 23:13:38 40° E 23:15:26 27° SE
Cosmos 1992 Rocket 4.2 23:11:11 24° SW 23:14:22 70° WNW 23:19:37 10° NNE
Cosmos 1726 Rocket 4.5 23:13:23 10° NNW 23:17:34 39° W 23:19:18 27° SW
Cosmos 1943 Rocket 3.4 23:13:07 10° NNW 23:18:12 36° NE 23:23:16 10° ESE
ATLAS CENTAUR R/B 3.3 23:16:58 10° WNW 23:20:02 19° WSW 23:20:38 18° SW
Cosmos 1184 Rocket 3.2 23:27:00 43° WSW 23:27:40 53° WNW 23:30:53 10° N
Cosmos 2219 Rocket 3.5 23:24:09 10° WSW 23:29:23 36° NW 23:34:37 10° NNE
ALOS 2 3.5 23:28:20 28° SW 23:29:50 37° W 23:33:56 10° NNW
MTI 4.0 23:29:12 10° N 23:32:12 54° WNW 23:32:42 46° WSW
EO 1 Del DPAF 4.2 23:30:53 10° NNE 23:34:17 33° E 23:35:10 29° SE
Cosmos 1892 Rocket 4.5 23:32:13 24° SW 23:34:23 41° WNW 23:38:36 10° N
NOSS 0 Rocket 4.1 23:30:01 20° SW 23:34:24 73° WNW 23:40:41 10° NNE
SL-16 R/B 3.0 23:34:20 27° SSE 23:36:41 39° ESE 23:41:55 10° NE
Resurs 1-4 Rocket 4.3 23:35:50 10° NE 23:38:32 14° E 23:41:14 10° ESE
SAR-Lupe-2 4.0 23:35:56 10° N 23:39:26 54° WNW 23:40:35 36° SW
SJ 16-02 2.1 23:35:52 10° NNW 23:40:07 47° ENE 23:42:45 21° SE
Cosmos 2237 Rocket 2.2 23:39:03 25° SW 23:42:27 77° WNW 23:48:06 10° NNE
CZ-2D R/B 4.3 23:40:41 10° NE 23:43:29 14° E 23:46:17 10° ESE
FALCON 9 DEB 4.5 23:40:53 10° W 23:44:09 40° N 23:47:24 10° ENE
PSLV R/B 3.5 23:48:21 10° NNE 23:52:39 82° ESE 23:54:21 37° S
Cosmos 2369 Rocket 3.6 23:47:40 10° NNW 23:52:59 37° NE 23:58:15 10° ESE
Cosmos 1455 4.1 23:50:40 10° NW 23:53:20 18° W 23:54:24 16° WSW
USA 32 4.0 23:49:10 10° N 23:54:26 76° W 23:56:56 32° S
